Flag for Germany Weather past 2 weeks in Leer, Lower Saxony, Germany

Now
37 °F

Overcast.


Feels Like: 31 °F
Forecast: 38 / 43 °F
Wind: 8 mph from Northeast

Location: Emden-Koenigspolder

Current Time: Dec 29, 2014 at 10:01:15 AM

Latest Report: Dec 29, 2014 at 9:00 AM


Visibility: 19 mi

Pressure: 30.40 "Hg

Humidity: 82%

Dew point: 32 °F

Location of LeerLocation

Historic Weather in Leer — Graph

°F

Leer temperature yesterday

Maximum temperature yesterday: 38 °F (at 11:00 PM)
Minimum temperature yesterday: 21 °F (at 6:00 AM)
Average temperature yesterday: 32 °F

Past Weeks' High & Low Weather Summary

 TemperatureHumidityPressure
High54 °F (Dec 22, 12:00 PM)100% (Dec 26, 5:00 AM)30.40 "Hg (Dec 26, 5:00 AM)
Low21 °F (Dec 28, 6:00 AM)57% (Dec 25, 1:00 PM)29.44 "Hg (Dec 17, 12:00 PM)
Average42 °F86%29.90 "Hg
* Reported Dec 14 9:00 AM — Dec 29 9:00 AM, Leer, Weather by CustomWeather, © 2014

Note: Actual official high and low records may vary slightly from our data, if they occured in-between our weather recording intervals... More about our weather records

Advertising

Leer weather history for previous 24 hours

 ConditionsComfort  
Time TempWeatherWind HumidityBarometerVisibility
9:00 AM
Dec 29
37 °FOvercast.8 mph82%30.40 "Hg19 mi
8:00 AM38 °FPassing clouds.6 mph79%30.36 "Hg28 mi
7:00 AM39 °FOvercast.7 mph80%30.33 "Hg28 mi
6:00 AM40 °FOvercast.8 mph73%30.31 "Hg25 mi
5:00 AM39 °FOvercast.6 mph82%30.30 "Hg19 mi
4:00 AM40 °FOvercast.6 mph77%30.30 "Hg22 mi
3:00 AM41 °FOvercast.6 mph81%30.29 "Hg22 mi
2:00 AM37 °FOvercast.3 mph95%30.29 "Hg16 mi
1:00 AM36 °FOvercast.5 mph94%30.30 "Hg11 mi
12:00 AM37 °FRain. Low clouds.8 mph92%30.33 "Hg2 mi
11:00 PM
Dec 28
38 °FLow clouds.6 mph80%30.33 "Hg15 mi
9:00 PM35 °FOvercast.5 mph79%30.39 "HgN/A
8:00 PM36 °FOvercast.5 mph76%30.40 "Hg19 mi
7:00 PM36 °FOvercast.2 mph75%30.40 "Hg17 mi
6:00 PM35 °FOvercast.3 mph79%30.40 "Hg15 mi
5:00 PM34 °FOvercast.2 mph80%30.40 "Hg16 mi
4:00 PM36 °FOvercast.1 mph77%30.39 "Hg17 mi
3:00 PM37 °FPassing clouds.3 mph73%30.36 "Hg22 mi
2:00 PM37 °FPassing clouds.3 mph69%30.35 "Hg19 mi
1:00 PM37 °FPassing clouds.3 mph69%30.35 "Hg13 mi
12:00 PM36 °FPassing clouds.2 mph72%30.35 "Hg13 mi
11:00 AM32 °FSunny.2 mph80%30.33 "Hg12 mi
10:00 AM28 °FOvercast.2 mph93%30.31 "Hg6 mi
Weather by CustomWeather, © 2014

See weather overviewHow to use our weather pages